Content
SEND FEEDBACK

Daily
Averages
Monthly
Summary
United States of America

BERKELEY, MISSOURI


Home > North America > United States > Missouri
Elevation: 564 feet     Latitude: 38 45N     Longitude: 090 22W

WEATHER
 
SELECT A DAY
Number of Records: 206,556;   Date Range: 1/1/95 - 10/23/14
 
SHARE

PRINT THIS DATA

[ ← Previous Day ]
WEATHER ALMANAC - MAY 18, 2013
[ Next Day → ]
[ °C ]   °F
Weather ElementAverageHighLow
Temperature72 °F81 °F (2:51 pm)62.6 °F (4:34 am)
Dewpoint62.9 °F64.4 °F (7:49 am)60.8 °F (4:34 am)
Humidity74.6 %94 % (4:34 am)52 % (3:51 pm)
Barometer29.95 in30.02 in (8:40 am)29.86 in (10:51 pm)
Wind Speed6.8 mph10.4 mph (9:51 pm)
Weather ElementAverage
Visibility7.2 mi
Wind DirectionESE (119.3 °)

Weather ElementTotal
Precipitation---
Cooling Degree Days6.8 (Base 65)
Growing Degree Days21.8 (Base 50)
Averaged from 29 records on May 18, 2013
WEATHER CONDITIONS BREAKOUT
WIND DIRECTION BREAKOUT
WEATHER BY HOUR - MAY 18, 2013
[ °C ]   °F
Local TimeTemperatureDewpointHumidityBarometerVisibilityWind DirectionWind SpeedGust SpeedPrecipitationEventsConditions
1:51 AM68.0 °F63.0 °F84 %29.96 in9.0 miSE (140°)4.6 mphClear
2:51 AM64.9 °F62.1 °F90 %29.96 in6.0 miESE (110°)4.6 mphClear
3:51 AM64.9 °F62.1 °F90 %29.95 in6.0 miEast (100°)3.5 mphClear
4:34 AM62.6 °F60.8 °F94 %29.97 in4.0 miENE (70°)4.6 mphClear
4:51 AM64.9 °F62.1 °F90 %29.95 in4.0 miSE (130°)4.6 mphPartly Cloudy
5:38 AM64.4 °F62.6 °F94 %29.98 in3.0 miEast (90°)3.5 mphPartly Cloudy
5:51 AM64.0 °F62.1 °F93 %29.96 in2.5 miESE (110°)3.5 mphScattered Clouds
6:20 AM64.4 °F62.6 °F94 %30.00 in3.0 miESE (120°)5.8 mphMostly Cloudy
6:46 AM64.4 °F62.6 °F94 %30.00 in3.0 miESE (110°)4.6 mphMostly Cloudy
6:51 AM66.0 °F63.0 °F90 %29.98 in3.0 miESE (110°)4.6 mphMostly Cloudy
7:49 AM68.0 °F64.4 °F88 %30.01 in4.0 miSE (140°)6.9 mphOvercast
7:51 AM68.0 °F64.0 °F87 %29.99 in4.0 miSE (140°)6.9 mphOvercast
8:40 AM69.8 °F64.4 °F83 %30.02 in5.0 miSouth (170°)6.9 mphHaze
9:51 AM73.0 °F64.0 °F73 %29.99 in8.0 miESE (110°)5.8 mphMostly Cloudy
10:51 AM73.9 °F63.0 °F68 %29.99 in9.0 miSE (130°)6.9 mphMostly Cloudy
11:45 AM75.2 °F62.6 °F65 %30.00 in9.0 miSE (140°)8.1 mphMostly Cloudy
11:51 AM77.0 °F64.0 °F64 %29.98 in9.0 miVariable5.8 mphMostly Cloudy
12:51 PM77.0 °F63.0 °F62 %29.95 in9.0 miESE (110°)9.2 mphMostly Cloudy
1:51 PM78.1 °F63.0 °F60 %29.93 in9.0 miESE (120°)8.1 mphMostly Cloudy
2:51 PM81.0 °F64.0 °F56 %29.93 in9.0 miSSE (150°)5.8 mphMostly Cloudy
3:51 PM81.0 °F62.1 °F52 %29.92 in9.0 miSSW (200°)6.9 mphMostly Cloudy
4:51 PM80.1 °F62.1 °F54 %29.91 in10.0 miESE (120°)9.2 mphMostly Cloudy
5:51 PM81.0 °F62.1 °F52 %29.91 in10.0 miSE (140°)9.2 mphScattered Clouds
6:51 PM80.1 °F63.0 °F56 %29.89 in10.0 miESE (110°)9.2 mphPartly Cloudy
7:51 PM78.1 °F63.0 °F60 %29.89 in10.0 miEast (100°)8.1 mphScattered Clouds
8:51 PM75.9 °F63.0 °F64 %29.88 in10.0 miESE (110°)8.1 mphPartly Cloudy
9:51 PM75.0 °F64.0 °F69 %29.88 in10.0 miESE (110°)10.4 mphScattered Clouds
10:51 PM73.9 °F63.0 °F68 %29.86 in10.0 miESE (120°)10.4 mphPartly Cloudy
11:51 PM73.9 °F63.0 °F68 %29.89 in10.0 miSSE (150°)10.4 mphClear
Hourly data recorded from KSTL, located miles away from Berkeley, Missouri







STORIES FROM OUR PARTNERS